GW1952 Weather Reports


time (UTC)temp
C
wind
direction
speed
KPH
gust
KPH
rain 1hr
cm
rain 24hr
cm
rain mn
cm
humidity
%
barometer
mb
20260906231610 18 331 16.1 25.7 0.00 0.03 0.03 70 1015.0
20260906230104 18 15 14.5 20.9 0.03 0.03 0.03 69 1015.1
20260906224558 18 344 14.5 22.5 0.03 0.03 0.03 69 1015.3
20260906223105 18 301 14.5 22.5 0.03 0.03 0.03 69 1015.6
20260906221604 17 309 9.7 17.7 0.03 0.03 0.03 69 1015.7
20260906220104 17 301 8.0 14.5 0.00 0.00 0.00 69 1015.8
20260906214558 17 319 9.7 19.3 0.00 0.00 0.00 69 1015.8
20260906213103 17 45 3.2 14.5 0.00 0.00 0.00 70 1015.7
20260906211600 17 33 3.2 9.7 0.00 0.00 0.00 72 1015.8
20260906210107 17 334 1.6 12.9 0.00 0.00 0.00 73 1015.9
20260906204606 16 93 1.6 11.3 0.00 0.00 0.00 74 1015.9
20260906203105 16 23 4.8 12.9 0.00 0.00 0.00 74 1015.8
20260906201607 16 71 4.8 14.5 0.00 0.00 0.00 75 1015.9
20260906200105 16 61 6.4 14.5 0.00 0.00 0.00 75 1016.0
20260906194606 16 347 8.0 14.5 0.00 0.00 0.00 76 1016.1
20260906193101 15 51 8.0 16.1 0.00 0.00 0.00 76 1016.4
20260906191602 15 64 8.0 16.1 0.00 0.00 0.00 77 1016.4
20260906190115 15 51 4.8 14.5 0.00 0.00 0.00 78 1016.5
20260906184603 15 36 8.0 22.5 0.00 0.00 0.00 79 1016.7
20260906183106 15 51 6.4 17.7 0.00 0.00 0.00 80 1016.6
20260906181601 15 84 9.7 19.3 0.00 0.00 0.00 80 1016.7
20260906180108 14 22 3.2 16.1 0.00 0.00 0.00 80 1017.2
20260906174558 14 344 8.0 17.7 0.00 0.00 0.00 80 1017.3
20260906173105 14 49 9.7 20.9 0.00 0.00 0.00 80 1016.7
20260906171604 13 307 12.9 24.1 0.00 0.00 0.00 81 1017.6
20260906170106 12 338 12.9 19.3 0.00 0.00 0.00 81 1018.1
20260906164559 12 298 16.1 24.1 0.00 0.00 0.00 80 1018.3
20260906163105 12 294 14.5 19.3 0.00 0.00 0.00 81 1018.4
20260906161600 12 294 14.5 19.3 0.00 0.00 0.00 80 1018.6
20260906160111 12 304 14.5 24.1 0.00 0.00 0.00 80 1018.6
20260906154607 12 294 16.1 25.7 0.00 0.00 0.00 80 1018.6
20260906153105 12 313 17.7 25.7 0.00 0.00 0.00 80 1018.8
20260906151604 12 306 16.1 29.0 0.00 0.00 0.00 80 1018.9
20260906150106 12 300 19.3 27.4 0.00 0.00 0.00 80 1019.1
20260906144605 12 298 20.9 30.6 0.00 0.00 0.00 80 1019.2
20260906143102 13 266 19.3 27.4 0.00 0.00 0.00 80 1019.4
20260906141603 13 275 12.9 17.7 0.00 0.00 0.00 80 1018.9
20260906140106 13 259 8.0 12.9 0.00 0.00 0.00 80 1018.7
20260906134603 14 296 4.8 8.0 0.00 0.10 0.00 80 1018.5
20260906133126 14 325 3.2 6.4 0.00 0.10 0.00 80 1018.7
20260906131604 14 316 8.0 16.1 0.00 0.10 0.00 79 1018.6
20260906130111 14 301 4.8 11.3 0.00 0.10 0.00 79 1018.8
20260906124612 14 59 4.8 12.9 0.00 0.10 0.00 79 1018.7
20260906123102 14 57 4.8 12.9 0.00 0.10 0.00 79 1018.7
20260906121604 14 348 9.7 19.3 0.00 0.10 0.00 78 1018.6
20260906120058 14 350 9.7 17.7 0.00 0.10 0.00 79 1018.1
20260906114611 14 47 6.4 16.1 0.00 0.10 0.00 79 1018.3
20260906113101 14 327 11.3 20.9 0.00 0.10 0.00 78 1018.3
20260906111602 14 31 12.9 17.7 0.00 0.10 0.00 78 1018.7
20260906110100 14 13 11.3 17.7 0.00 0.10 0.00 78 1018.7
20260906104629 14 11 14.5 24.1 0.00 0.10 0.00 78 1019.0
20260906103105 14 350 12.9 20.9 0.00 0.10 0.00 78 1019.1
20260906101558 14 13 9.7 22.5 0.00 0.10 0.00 78 1018.9
20260906100104 14 346 9.7 17.7 0.00 0.10 0.00 78 1018.9
20260906094601 14 341 6.4 20.9 0.00 0.10 0.00 78 1018.9
20260906093123 14 336 11.3 19.3 0.00 0.10 0.00 78 1018.8
20260906091601 14 342 12.9 19.3 0.00 0.10 0.00 79 1018.7
20260906090059 13 348 12.9 20.9 0.00 0.10 0.00 79 1018.7
20260906084602 13 309 14.5 22.5 0.00 0.10 0.00 79 1019.0
20260906083102 13 317 11.3 19.3 0.00 0.10 0.00 78 1019.1
20260906081601 13 303 12.9 17.7 0.00 0.10 0.00 79 1019.5
20260906080059 13 294 12.9 19.3 0.00 0.10 0.00 78 1019.7
20260906074556 14 305 11.3 17.7 0.00 0.10 0.00 77 1019.8
20260906073101 14 321 8.0 14.5 0.00 0.10 0.00 76 1019.9
20260906071559 14 342 6.4 12.9 0.00 0.10 0.00 76 1019.9
20260906070059 14 342 9.7 19.3 0.00 0.10 0.00 76 1020.0
20260906064603 14 323 14.5 19.3 0.00 0.10 0.00 77 1019.9
20260906063100 13 350 9.7 22.5 0.00 0.10 0.00 78 1020.1
20260906061601 13 324 16.1 22.5 0.00 0.10 0.00 79 1020.3
20260906054609 13 306 16.1 20.9 0.00 0.10 0.10 78 1020.5
20260906053101 13 309 14.5 22.5 0.00 0.10 0.10 76 1020.5
20260906051559 14 325 11.3 17.7 0.00 0.10 0.10 75 1020.3
20260906050124 14 317 9.7 20.9 0.00 0.10 0.10 74 1020.1
20260906044602 15 332 11.3 22.5 0.00 0.10 0.10 74 1019.9
20260906043102 15 286 11.3 17.7 0.00 0.10 0.10 71 1019.9
20260906041559 15 299 11.3 22.5 0.00 0.10 0.10 69 1020.3
20260906040136 15 11 16.1 29.0 0.00 0.10 0.10 68 1019.3
20260906034605 15 10 17.7 27.4 0.00 0.10 0.10 67 1018.6
20260906033111 16 344 16.1 29.0 0.00 0.10 0.10 65 1019.1
20260906031606 16 334 17.7 27.4 0.00 0.10 0.10 63 1019.2
20260906024618 16 271 20.9 29.0 0.00 0.10 0.10 63 1020.4
20260906023059 17 43 11.3 25.7 0.00 0.10 0.10 61 1017.7
20260906021603 17 36 14.5 22.5 0.00 0.10 0.10 59 1017.4
20260906020108 18 38 12.9 19.3 0.00 0.10 0.10 57 1017.6
20260906014611 18 11 11.3 27.4 0.00 0.10 0.10 55 1017.4
20260906013104 19 49 11.3 22.5 0.00 0.10 0.10 52 1017.6
20260906011602 20 15 14.5 25.7 0.00 0.10 0.10 51 1017.6
20260906010103 21 344 17.7 27.4 0.00 0.10 0.10 49 1017.6
20260906004607 21 346 20.9 33.8 0.00 0.10 0.10 48 1017.6
20260906003106 21 308 20.9 37.0 0.00 0.10 0.10 49 1017.7
20260906001607 22 317 24.1 40.2 0.00 0.10 0.10 45 1017.8
20260906000108 22 333 17.7 32.2 0.00 0.10 0.10 43 1017.7
20260905234611 22 316 14.5 25.7 0.00 0.10 0.10 40 1017.8
20260905233104 22 337 16.1 29.0 0.00 0.10 0.10 39 1017.9